Weather History for Homestead AFB, FL

Change the Weather History Date:

Thursday, February 28, 2013

  Actual Average Record
Temperature  
Mean Temperature 68 °F -  
Max Temperature 75 °F 78 °F 88 °F (1956)
Min Temperature 62 °F 54 °F 34 °F (1952)
Cooling Degree Days 4    
Growing Degree Days 18 (Base 50)    
Moisture  
Dew Point 58 °F    
Average Humidity 73    
Maximum Humidity 94    
Minimum Humidity 36    
Precipitation  
Precipitation 0.00 in - - ()
Sea Level Pressure  
Sea Level Pressure 29.97 in    
Wind  
Wind Speed 6 mph (NW)    
Max Wind Speed 16 mph    
Max Gust Speed -    
Visibility 10 miles    
Events Rain    
Averages and records for this station are not official NWS values.
T = Trace of Precipitation, MM = Missing Value Source: NWS Daily Summary

Daily Weather History Graph

Daily Weather History Graph

Search for Another Location

Airport:

Trip Planner

Search our weather history database for the weather conditions in past years. The results will help you decide how hot, cold, wet, or windy it might be!

Date:

Astronomy

Feb. 28, 2013 Rise Set
Actual Time 6:45 AM EST 6:23 PM EST
Civil Twilight 6:22 AM EST 6:46 PM EST
Nautical Twilight 5:55 AM EST 7:12 PM EST
Astronomical Twilight 5:28 AM EST 7:39 PM EST
Moon 9:21 PM EST (2/28) 8:17 AM EST (2/28)
Length of Visible Light 12h 23m
Length of Day
11h 37m
Waning Gibbous, 91% of the Moon is Illuminated
Feb 28
Waning Gibbous
Mar 4
Last Quarter
Mar 11
New
Mar 19
First Quarter
Mar 27
Full

Hourly Weather History & Observations

Time (EST) Temp. Dew Point Humidity Pressure Visibility Wind Dir Wind Speed Gust Speed Precip Events Conditions
12:03 AM 68.0 °F 66.2 °F 94% 29.96 in 10.0 mi Calm Calm - N/A Rain Light Rain
12:08 AM 68.0 °F 66.2 °F 94% 29.96 in 10.0 mi NW 4.6 mph - N/A Rain Light Rain
12:09 AM 68.0 °F 66.2 °F 94% 29.96 in 10.0 mi NW 4.6 mph - N/A   Scattered Clouds
12:14 AM 68.0 °F 66.2 °F 94% 29.96 in 10.0 mi WNW 4.6 mph - N/A   Mostly Cloudy
12:28 AM 68.0 °F 66.2 °F 94% 29.97 in 10.0 mi NW 6.9 mph - N/A Rain Light Rain
12:38 AM 68.0 °F 66.2 °F 94% 29.96 in 10.0 mi NW 8.1 mph - N/A Rain Light Rain
12:58 AM 68.0 °F 66.2 °F 94% 29.97 in 10.0 mi NNW 10.4 mph - N/A   Light Drizzle
1:03 AM 68.0 °F 66.2 °F 94% 29.97 in 9.0 mi NW 10.4 mph - N/A Rain Rain
1:13 AM 68.0 °F 66.2 °F 94% 29.97 in 4.0 mi NNW 6.9 mph - N/A Rain Heavy Rain
1:23 AM 68.0 °F 66.2 °F 94% 29.97 in 7.0 mi NW 5.8 mph - N/A Rain Rain
1:28 AM 68.0 °F 66.2 °F 94% 29.96 in 9.0 mi NNW 4.6 mph - N/A Rain Light Rain
1:33 AM 68.0 °F 66.2 °F 94% 29.96 in 10.0 mi NW 4.6 mph - N/A Rain Light Rain
1:48 AM 68.0 °F 66.2 °F 94% 29.96 in 10.0 mi NW 6.9 mph - N/A   Overcast
1:58 AM 68.0 °F 66.2 °F 94% 29.95 in 10.0 mi NW 4.6 mph - N/A   Overcast
2:58 AM 66.2 °F 64.4 °F 94% 29.92 in 10.0 mi SW 3.5 mph - N/A   Partly Cloudy
3:00 AM 66.2 °F 64.4 °F 94% 29.92 in 10.0 mi SSW 4.6 mph - N/A Rain Light Rain
3:11 AM 66.2 °F 64.4 °F 94% 29.92 in 10.0 mi SW 3.5 mph - N/A   Scattered Clouds
3:58 AM 66.2 °F 64.4 °F 94% 29.94 in 10.0 mi WNW 3.5 mph - N/A   Mostly Cloudy
4:58 AM 66.2 °F 62.6 °F 88% 29.95 in 10.0 mi NW 11.5 mph - N/A   Mostly Cloudy
5:58 AM 64.4 °F 60.8 °F 88% 29.96 in 10.0 mi NNW 11.5 mph - N/A   Overcast
6:58 AM 62.6 °F 57.2 °F 82% 29.98 in 10.0 mi NNW 10.4 mph - N/A   Mostly Cloudy
7:58 AM 62.6 °F 53.6 °F 72% 30.00 in 10.0 mi NNW 11.5 mph - N/A   Partly Cloudy
8:58 AM 64.4 °F 53.6 °F 68% 30.02 in 10.0 mi NW 16.1 mph - N/A   Clear
9:51 AM 66.2 °F 51.8 °F 60% 30.01 in 10.0 mi NNW 11.5 mph - N/A   Light Drizzle
9:58 AM 66.2 °F 51.8 °F 60% 30.02 in 10.0 mi NNW 11.5 mph - N/A   Light Drizzle
10:00 AM 66.2 °F 51.8 °F 60% 30.01 in 10.0 mi NNW 12.7 mph - N/A   Scattered Clouds
10:58 AM 66.2 °F 53.6 °F 64% 30.02 in 10.0 mi NNW 10.4 mph - N/A   Mostly Cloudy
11:58 AM 66.2 °F 50.0 °F 56% 30.02 in 10.0 mi NNW 11.5 mph - N/A   Partly Cloudy
12:58 PM 71.6 °F 50.0 °F 46% 29.99 in 10.0 mi NNW 10.4 mph - N/A   Clear
1:58 PM 73.4 °F 48.2 °F 41% 29.96 in 10.0 mi NNE 8.1 mph - N/A   Scattered Clouds
2:22 PM 73.4 °F 46.4 °F 38% 29.94 in 10.0 mi NNW 6.9 mph - N/A   Light Drizzle
2:31 PM 73.4 °F 46.4 °F 38% 29.94 in 10.0 mi NW 8.1 mph - N/A   Clear
2:58 PM 75.2 °F 46.4 °F 36% 29.94 in 10.0 mi NNW 4.6 mph - N/A   Clear
3:58 PM 71.6 °F 51.8 °F 50% 29.95 in 10.0 mi NNW 10.4 mph - N/A   Scattered Clouds
4:58 PM 69.8 °F 50.0 °F 49% 29.95 in 10.0 mi NW 3.5 mph - N/A   Partly Cloudy
5:58 PM 69.8 °F 50.0 °F 49% 29.96 in 10.0 mi NW 6.9 mph - N/A   Partly Cloudy
6:58 PM 68.0 °F 51.8 °F 56% 29.97 in 10.0 mi NW 6.9 mph - N/A   Partly Cloudy
7:58 PM 68.0 °F 50.0 °F 52% 29.97 in 10.0 mi NNW 5.8 mph - N/A   Scattered Clouds
8:58 PM 68.0 °F 48.2 °F 49% 29.98 in 10.0 mi NNW 5.8 mph - N/A   Scattered Clouds
9:58 PM 66.2 °F 50.0 °F 56% 29.98 in 10.0 mi WNW 3.5 mph - N/A   Scattered Clouds
10:58 PM 66.2 °F 50.0 °F 56% 29.97 in 10.0 mi NW 5.8 mph - N/A   Mostly Cloudy
11:58 PM 66.2 °F 53.6 °F 64% 29.98 in 10.0 mi West 5.8 mph - N/A   Mostly Cloudy